Regional Weather Roundup
Issued by NWS

Home | Current Version | Previous Version | Graphics & Text | Print | Product List | Glossary On
Versions: 1 2 3 4 5 6 7 8 9 10 11 12 13 14 15 16 17 18 19 20 21 22 23 24 25 26 27 28 29 30 31 32 33 34 35 36 37 38 39 40 41 42 43 44 45 46 47 48 49 50
000
ASUS43 KDMX 211001
RWRIA

WEATHER ROUNDUP FOR IOWA
NATIONAL WEATHER SERVICE DES MOINES IA
400 AM CST TUE FEB 21 2017

NOTE: "FAIR" INDICATES FEW OR NO CLOUDS BELOW 12,000 FEET WITH NO
SIGNIFICANT WEATHER AND/OR OBSTRUCTIONS TO VISIBILITY.

* - THESE STATIONS ARE NOT NWS STATIONS...THUS NOT UNDER NWS
QUALITY CONTROL.  THEY ALSO DO NOT REPORT WEATHER SUCH
AS PRECIPITATION OR FOG.

IAZ001>003-012>014-020>022-031>034-043>046-211100-
   NORTHWEST IOWA

CITY           SKY/WX    TMP DP  RH WIND       PRES   REMARKS
CARROLL *      CLEAR     36  36 100 W3        29.94F
CHEROKEE *     FOG       28  28 100 CALM      29.92S VSB 3/4
DENISON *      FOG       32  32 100 CALM      29.92S VSB<1/4
LE MARS *      PTCLDY    32  32 100 CALM      29.93F
SHELDON *      FOG       34  34 100 S7        29.89F VSB 1/2 WCI  28
SIOUX CITY     CLEAR     31  30  96 E7        29.93F WCI  24
SPENCER        CLEAR     33  32  96 S6        29.90F WCI  28
STORM LAKE *   CLEAR     36  36 100 SW6       29.92F FOG     WCI  31
$$

IAZ055>058-069>071-079>083-090>094-211100-
   SOUTHWEST IOWA

CITY           SKY/WX    TMP DP  RH WIND       PRES   REMARKS
ATLANTIC *     FOG       32  32 100 CALM      29.96S VSB 1/4
CLARINDA *     FOG       34  34 100 CALM      29.99R VSB<1/4
COUNCIL BLFS * CLEAR     39  39 100 CALM      29.95S
CRESTON *      CLEAR     45  39  81 NE5       29.97R
HARLAN  *      FOG       30  30 100 CALM      29.98F VSB<1/4
LAMONI         PTCLDY    44  41  89 N8        29.96S
RED OAK *      FOG       34  34 100 CALM      29.97S VSB 1/4
SHENANDOAH *   CLEAR     36  36 100 CALM      29.99R
$$

IAZ047>049-059>061-072>074-084-211100-
   CENTRAL IOWA

CITY           SKY/WX    TMP DP  RH WIND       PRES   REMARKS
AMES           CLEAR     35  35 100 W5        29.96R FOG     WCI  31
ANKENY *       CLOUDY    39  37  93 CALM      29.97R FOG
BOONE *        CLEAR     39  39 100 W5        29.94S
CHARITON *     CLOUDY    46  45  93 N3        29.97R
DES MOINES     CLOUDY    44  40  85 NW6       29.96R
GRINNELL*      CLOUDY    41  40  95 NW5       29.97R
KNOXVILLE *    CLOUDY    45  43  93 NW5       29.95R
MARSHALLTOWN   FOG       37  37 100 CALM      29.95R VSB 1/2
NEWTON *       CLOUDY    43  41  93 N6        29.95S
PELLA *        CLOUDY    43  41  95 NW5       29.97R
PERRY *          N/A     36  35  97 W5        29.96S WCI  32
$$

IAZ004>006-015-016-023>025-035-036-211100-
   NORTH CENTRAL IOWA

CITY           SKY/WX    TMP DP  RH WIND       PRES   REMARKS
ALGONA *       CLEAR     37  37 100 SW5       29.92S WCI  34
CLARION *      CLEAR     34  34 100 CALM      29.94S FOG
ESTHERVILLE    CLEAR     34  34 100 SW7       29.89F WCI  28
FORT DODGE *     N/A     34  30  86 CALM      29.94F VSB 3/4
MASON CITY     CLEAR     35  34  96 W8        29.94R WCI  29
FOREST CITY *  FOG       32  32 100 SW3       29.92S VSB 1/2
IOWA FALLS *     N/A     35  34  96 W6        29.96R FOG     WCI  30
$$

IAZ007>011-017>019-026>030-037>042-050>054-066-211100-
   NORTHEAST IOWA

CITY           SKY/WX    TMP DP  RH WIND       PRES   REMARKS
CEDAR RAPIDS   CLOUDY    42  42 100 NW10      29.93R
CHARLES CITY * CLEAR     37  37 100 CALM      29.93S FOG
CLINTON *      CLOUDY    52  52 100 NW12      29.92R FOG
DECORAH *      CLEAR     39  37  93 VRB5      29.92R
DUBUQUE        MOCLDY    44  43  96 NW7       29.91S
MONTICELLO *   CLOUDY    43  43 100 W7        29.93R
OELWEIN *      CLOUDY    39  39 100 W5        29.95R FOG
WATERLOO       FOG       33  33 100 CALM      29.95R VSB 1/4
$$

IAZ064-065-067-068-078-211100-
   EAST CENTRAL IOWA

CITY           SKY/WX    TMP DP  RH WIND       PRES   REMARKS
DAVENPORT      CLOUDY    54  51  90 NW12      29.92R
IOWA CITY      CLOUDY    49  44  83 NW5       29.94S
MUSCATINE *    CLOUDY    52  48  87 N8        29.93R
QUAD CITIES    CLOUDY    58  54  86 W5        29.90S
$$

IAZ062-063-075>077-085>089-095>099-211100-
   SOUTHEAST IOWA

CITY           SKY/WX    TMP DP  RH WIND       PRES   REMARKS
BURLINGTON     FOG       55  55 100 S3        29.90F VSB 1/4
FAIRFIELD *    MOCLDY    46  45  93 N7        29.92F
KEOKUK *       FOG       57  57 100 S3        29.91F VSB<1/4
OTTUMWA        CLOUDY    47  45  93 NW6       29.96R
WASHINGTON *   MOCLDY    48  46  93 N6        29.94F
$$

ABBREVIATIONS USED IN REMARKS
   TC - TEMPERATURES IN CELSIUS
  WCI - WIND CHILL INDEX
   HX - HEAT INDEX
  VSB - VISIBILITY
$$




USA.gov is the U.S. government's official web portal to all federal, state and local government web resources and services.